This demonstration page uses our WeatherBlox Daily Observations layout. Learn more.

Hourly Observations for November 8, 2019

Temp ( °F °C ) Dew Point ( °F °C ) Humidity (%) Winds ( mph kmh ) Pressure ( in mb ) Visibility ( mi km ) Precip ( " mm )
12:15 am 00:15 Clear 25 -3.7 19 -7 78 78 SSW 8 13 30.51 1033 10 16.0934 0 0
12:35 am 00:35 Clear 25 -4 19 -7.2 79 79 SW 6 9 30.52 1033 10 16.0934 0 0
12:55 am 00:55 Clear 25 -4.1 19 -7 80 80 SSW 7 11 30.51 1033 10 16.0934 0 0
1:15 am 01:15 Clear 25 -4.1 19 -7.1 80 80 SSW 6 9 30.5 1033 10 16.0934 0 0
1:35 am 01:35 Clear 24 -4.4 19 -7.3 80 80 SSW 5 7 30.51 1033 10 16.0934 0 0
1:55 am 01:55 Clear 24 -4.3 19 -7.3 80 80 SSW 3 6 30.5 1033 10 16.0934 0 0
2:15 am 02:15 Clear 24 -4.6 19 -7.3 82 82 SSW 7 11 30.49 1033 10 16.0934 0 0
2:35 am 02:35 Clear 23 -4.9 18 -7.7 81 81 S 6 9 30.48 1032 10 16.0934 0 0
2:55 am 02:55 Clear 23 -5 19 -7.5 83 83 SSW 9 15 30.49 1032 10 16.0934 0 0
3:15 am 03:15 Clear 24 -4.3 19 -7.2 80 80 S 8 13 30.48 1032 10 16.0934 0 0
3:35 am 03:35 Clear 24 -4.5 19 -7.3 81 81 S 6 9 30.47 1032 10 16.0934 0 0
3:55 am 03:55 Clear 25 -4 19 -7 80 80 S 8 13 30.46 1031 10 16.0934 0 0
4:15 am 04:15 Clear 25 -4 19 -7 80 80 SSW 9 15 30.45 1031 10 16.0934 0 0
4:35 am 04:35 Clear 25 -3.8 19 -7 79 79 S 8 13 30.44 1031 10 16.0934 0 0
4:55 am 04:55 Clear 24 -4.2 19 -7.1 80 80 S 9 15 30.44 1031 10 16.0934 0 0
5:15 am 05:15 Clear 24 -4.5 19 -7.3 81 81 S 10 17 30.44 1031 10 16.0934 0 0
5:35 am 05:35 Clear 24 -4.5 19 -7.5 80 80 S 10 17 30.43 1030 10 16.0934 0 0
5:55 am 05:55 Clear 24 -4.2 19 -7.2 80 80 S 10 17 30.42 1030 10 16.0934 0 0
6:15 am 06:15 Clear 24 -4.6 19 -7.5 80 80 S 10 17 30.42 1030 10 16.0934 0 0
6:35 am 06:35 Clear 24 -4.6 19 -7.3 82 82 S 9 15 30.42 1030 10 16.0934 0 0
6:55 am 06:55 Clear 24 -4.5 19 -7.2 82 82 S 8 13 30.41 1030 10 16.0934 0 0
7:15 am 07:15 Clear 24 -4.5 19 -7.1 82 82 S 7 11 30.41 1030 10 16.0934 0 0
7:35 am 07:35 Sunny 23 -5.2 18 -7.6 83 83 SSE 5 7 30.42 1030 10 16.0934 0 0
7:55 am 07:55 Sunny 24 -4.6 20 -6.7 85 85 S 7 11 30.4 1029 10 16.0934 0 0
8:15 am 08:15 Sunny 26 -3.3 20 -6.4 79 79 S 8 13 30.38 1029 10 16.0934 0 0
8:35 am 08:35 Sunny 28 -2.4 21 -5.9 77 77 S 9 15 30.37 1028 10 16.0934 0 0
8:55 am 08:55 Sunny 30 -1 23 -5.2 73 73 SSW 9 15 30.36 1028 10 16.0934 0 0
9:15 am 09:15 Sunny 32 0.1 24 -4.5 72 72 SSW 17 28 30.33 1027 10 16.0934 0 0
9:35 am 09:35 Sunny 34 1.2 25 -4 69 69 SSW 16 26 30.31 1027 10 16.0934 0 0
9:55 am 09:55 Sunny 37 2.5 25 -3.8 64 64 SSW 15 24 30.3 1026 10 16.0934 0 0
10:15 am 10:15 Sunny 38 3.5 26 -3.5 61 61 SSW 17 28 30.28 1025 10 16.0934 0 0
10:35 am 10:35 Sunny 40 4.6 27 -3 58 58 SSW 15 24 30.27 1025 10 16.0934 0 0
10:55 am 10:55 Sunny 42 5.3 28 -2.4 58 58 SW 15 24 30.26 1025 10 16.0934 0 0
11:15 am 11:15 Sunny 43 6.2 28 -2.2 55 55 SSW 20 31 30.24 1024 10 16.0934 0 0
11:35 am 11:35 Sunny 45 7 28 -2 53 53 SW 14 22 30.23 1024 10 16.0934 0 0
11:55 am 11:55 Sunny 46 7.6 29 -1.8 52 52 SW 15 24 30.21 1023 10 16.0934 0 0
12:15 pm 12:15 Sunny 47 8.4 29 -1.4 50 50 SW 16 26 30.18 1022 10 16.0934 0 0
12:35 pm 12:35 Sunny 49 9.4 30 -0.9 49 49 SSW 16 26 30.15 1021 10 16.0934 0 0
12:55 pm 12:55 Sunny 50 10.1 31 -0.5 48 48 SW 16 26 30.13 1020 10 16.0934 0 0
1:15 pm 13:15 Sunny 52 11 32 -0.1 47 47 SSW 17 28 30.12 1020 10 16.0934 0 0
1:35 pm 13:35 Sunny 53 11.6 32 0 45 45 SW 16 26 30.11 1020 10 16.0934 0 0
1:55 pm 13:55 Sunny 53 11.5 32 0 45 45 SW 12 19 30.11 1020 10 16.0934 0 0
2:15 pm 14:15 Sunny 54 12.1 32 0 44 44 SW 13 20 30.08 1019 10 16.0934 0 0
2:35 pm 14:35 Sunny 55 12.6 32 0 42 42 SW 13 20 30.07 1018 10 16.0934 0 0
2:55 pm 14:55 Sunny 56 13.1 32 0 41 41 SW 10 17 30.07 1018 10 16.0934 0 0
3:15 pm 15:15 Sunny 56 13.1 32 0 41 41 SW 9 15 30.06 1018 10 16.0934 0 0
3:35 pm 15:35 Sunny 56 13.6 32 0 40 40 SW 13 20 30.05 1018 10 16.0934 0 0
3:55 pm 15:55 Sunny 57 13.7 32 0 39 39 WSW 8 13 30.04 1017 10 16.0934 0 0
4:15 pm 16:15 Sunny 57 14 32 0 39 39 WSW 9 15 30.04 1017 10 16.0934 0 0
4:35 pm 16:35 Sunny 57 13.7 32 0 39 39 SW 9 15 30.04 1017 10 16.0934 0 0
4:55 pm 16:55 Sunny 55 13 32 -0.1 41 41 SSW 5 7 30.05 1017 10 16.0934 0 0
5:15 pm 17:15 Sunny 53 11.4 31 -0.3 45 45 SSW 6 9 30.05 1018 10 16.0934 0 0
5:35 pm 17:35 Clear 50 10 31 -0.6 48 48 SW 7 11 30.07 1018 10 16.0934 0 0
5:55 pm 17:55 Clear 49 9.2 31 -0.7 50 50 SSW 5 7 30.08 1019 10 16.0934 0 0
6:15 pm 18:15 Clear 47 8.1 30 -1.1 53 53 SSW 6 9 30.09 1019 10 16.0934 0 0
6:35 pm 18:35 Clear 46 7.6 30 -1.1 54 54 SSW 6 9 30.09 1019 10 16.0934 0 0
6:55 pm 18:55 Clear 45 7.4 30 -1.1 55 55 SSW 7 11 30.1 1019 10 16.0934 0 0
7:15 pm 19:15 Clear 46 7.8 30 -1 54 54 SW 7 11 30.09 1019 10 16.0934 0 0
7:35 pm 19:35 Clear 45 7.3 30 -1 56 56 SSW 7 11 30.11 1020 10 16.0934 0 0
7:55 pm 19:55 Clear 45 7 30 -1.1 57 57 SW 7 11 30.1 1019 10 16.0934 0 0
8:15 pm 20:15 Clear 46 7.5 30 -1.1 55 55 SW 8 13 30.11 1019 10 16.0934 0 0
8:35 pm 20:35 Clear 47 8.2 30 -1 53 53 SW 9 15 30.09 1019 10 16.0934 0 0
8:55 pm 20:55 Clear 47 8.1 30 -1.2 52 52 SW 8 13 30.09 1019 10 16.0934 0 0
9:15 pm 21:15 Clear 47 8.5 29 -1.4 50 50 SW 12 19 30.09 1019 10 16.0934 0 0
9:35 pm 21:35 Clear 49 9.5 29 -1.5 47 47 WSW 12 19 30.08 1019 10 16.0934 0 0
9:55 pm 21:55 Clear 48 8.9 29 -1.4 49 49 W 12 19 30.09 1019 10 16.0934 0 0
10:15 pm 22:15 Clear 47 8.4 29 -1.5 50 50 W 12 19 30.1 1019 10 16.0934 0 0
10:35 pm 22:35 Clear 45 7.3 29 -1.6 54 54 W 9 15 30.11 1020 10 16.0934 0 0
10:55 pm 22:55 Clear 43 6.1 28 -2 56 56 W 9 15 30.13 1020 10 16.0934 0 0
11:15 pm 23:15 Clear 45 7.3 28 -2.5 50 50 W 8 13 30.11 1020 10 16.0934 0 0
11:35 pm 23:35 Clear 44 6.5 27 -2.6 53 53 WNW 7 11 30.11 1020 10 16.0934 0 0
11:55 pm 23:55 Clear 43 6.1 27 -2.8 53 53 WNW 6 9 30.13 1020 10 16.0934 0 0

Powered by AerisWeather